Overview Statistics Trail Chart Weather Telemetry Raw packets
 

This is the latest recevied weather packets stored in our database for station/object KF0WJA. If no packets are shown the sender has not sent any weather packets the latest 10 day(s).

<< 40 41 42 43 44 45 46 >>
Time Temp. Humidity Pressure Rain* Wind** Luminosity Snow
1788389207 37.22° C 35% 1014.4 hPa 0 mm - 334 W/m² -
1788388903 37.22° C 35% 1014.5 hPa 0 mm - 325 W/m² -
1788388599 37.22° C 35% 1014.3 hPa 0 mm - 344 W/m² -
1788388298 37.22° C 33% 1014.4 hPa 0 mm - 367 W/m² -
1788387998 37.22° C 34% 1014.3 hPa 0 mm - 411 W/m² -
1788387696 37.22° C 36% 1014.3 hPa 0 mm - 416 W/m² -
1788387397 37.22° C 36% 1014.6 hPa 0 mm - 398 W/m² -
1788387092 37.22° C 35% 1014.4 hPa 0 mm - 85 W/m² -
1788386788 37.22° C 35% 1014.4 hPa 0 mm - 227 W/m² -
1788386487 36.67° C 36% 1014.6 hPa 0 mm - 301 W/m² -
1788386183 37.22° C 34% 1014.8 hPa 0 mm - 446 W/m² -
1788385878 38.33° C 34% 1014.7 hPa 0 mm - 199 W/m² -
1788385573 37.78° C 35% 1014.7 hPa 0 mm - 489 W/m² -
1788385272 37.78° C 34% 1014.8 hPa 0 mm - 479 W/m² -
1788384968 37.78° C 35% 1014.7 hPa 0 mm - 513 W/m² -
1788384667 38.33° C 35% 1014.8 hPa 0 mm - 484 W/m² -
1788384363 37.78° C 35% 1014.8 hPa 0 mm - 543 W/m² -
1788384059 36.67° C 36% 1014.8 hPa 0 mm - 557 W/m² -
1788383755 37.78° C 34% 1015 hPa 0 mm - 561 W/m² -
1788383450 37.22° C 35% 1015.1 hPa 0 mm - 567 W/m² -
1788383150 36.67° C 37% 1014.9 hPa 0 mm - 132 W/m² -
1788382850 37.78° C 34% 1015.2 hPa 0 mm - 558 W/m² -
1788382568 37.78° C 34% 1015.1 hPa 0 mm - 622 W/m² -
1788382245 37.78° C 33% 1015.2 hPa 0 mm - 631 W/m² -
1788381944 37.78° C 34% 1015.3 hPa 0 mm - 656 W/m² -

* Rain latest hour (hover to see other rain measurements)
** Current wind speed in m/s (hover to see current wind gust speed)